Lexington Weather

Lexington, Massachusetts, USA

32°F
11/15/2019 2:04am 
  • Lexington Conditions: Mostly cloudy
  • Temperature: 31.5°F / -0.3°CWarmer 0.6°F than last hour.
  • Dew Point: 29.1°FIncreased 1.2°Fsince last hour.
  • Relative Humidity: 91%Increased 3.0% since last hour.
  • Wind: Wind from SSW SSW 1 mph, 10-min avg: Calm, gust: 3 mph
  • Barometer: 30.19 in Steady
  • Visibility: 10 miles
  • Snow Today: 0.0 in
  •   

Regional Weather Roundup
for Boston / Norton, MA

        
000
ASUS41 KBOX 142100
RWRBOX

REGIONAL WEATHER ROUNDUP
NATIONAL WEATHER SERVICE BOSTON/NORTON MA
400 PM EST THU NOV 14 2019

NOTE:  "FAIR" INDICATES FEW OR NO CLOUDS BELOW 12,000 FEET WITH NO 
SIGNIFICANT WEATHER AND/OR OBSTRUCTIONS TO VISIBILITY.

MAZALL-142200-
EASTERN MASSACHUSETTS
  
CITY           SKY/WX    TMP DP  RH WIND       PRES   REMARKS
BOSTON         CLOUDY    41  28  60 SE9       30.36F                  
BEVERLY        MOCLDY    39  27  62 S6        30.36F                  
LAWRENCE       MOCLDY    37  24  59 S5        30.38F                  
BEDFORD        MOCLDY    38  24  57 S3        30.35F                  
BLUE HILL        N/A     35  27  72 SE8       30.33F WCI  29          
NORWOOD        FAIR      41  27  57 CALM      30.36F                  
MARSHFIELD     NOT AVBL                                               
PLYMOUTH       FAIR      39  34  82 SE3       30.37F                  
TAUNTON        FAIR      42  29  59 CALM      30.36F                  
NEW BEDFORD    CLOUDY    45  31  58 S5        30.36F                  
$$

MAZALL-142200-
CAPE COD AND THE ISLANDS
  
CITY           SKY/WX    TMP DP  RH WIND       PRES   REMARKS
FALMOUTH       NOT AVBL                                               
HYANNIS        NOT AVBL                                               
CHATHAM        CLOUDY    43  34  70 S8        30.39F                  
PROVINCETOWN   CLOUDY    40  34  79 S8        30.40F                  
NANTUCKET      CLOUDY    46  38  73 S17       30.39F                  
MARTHAS VNYRD  MOCLDY    44  35  70 CALM      30.37F                  
$$
 
MAZALL-142200-
CENTRAL AND WESTERN MASSACHUSETTS
  
CITY           SKY/WX    TMP DP  RH WIND       PRES   REMARKS
WORCESTER      CLOUDY    33  22  63 SE6       30.31F WCI  28          
FITCHBURG      MOCLDY    35  23  61 SE6       30.35F WCI  30          
ORANGE         MOCLDY    36  23  59 S9        30.33F WCI  29          
SPRINGFIELD    NOT AVBL                                               
WESTFIELD      MOCLDY    33  20  58 CALM      30.34F                  
NORTH ADAMS    FLURRIES  35  18  49 CALM      30.28S                  
PITTSFIELD     CLOUDY    34  19  54 VRB6      30.25S WCI  29          
$$
 
RIZALL-142200-
RHODE ISLAND
  
CITY           SKY/WX    TMP DP  RH WIND       PRES   REMARKS
PROVIDENCE     CLOUDY    40  31  70 NE3       30.35F                  
NEWPORT        MOCLDY    46  32  58 VRB7      30.34F                  
BLOCK ISLAND   MOCLDY    46  34  62 S12       30.35F                  
SMITHFIELD     FAIR      37  29  72 CALM      30.34F                  
WESTERLY       MOCLDY    48  34  58 SW5       30.34F                  
$$
 
CTZALL-142200-
CONNECTICUT
  
CITY           SKY/WX    TMP DP  RH WIND       PRES   REMARKS
BRADLEY INTL   CLOUDY    37  21  52 CALM      30.34F                  
HARTFORD       FAIR      38  23  55 N5        30.34F                  
BRIDGEPORT     FAIR      43  28  55 W3        30.34F                  
DANBURY        FAIR      39  23  52 VRB3      30.33S                  
GROTON         NOT AVBL                                               
NEW HAVEN      MOCLDY    43  30  60 CALM      30.34F                  
CHESTER        FAIR      41  30  65 CALM      30.33S                  
MERIDEN        FAIR      40  28  62 S3        30.34S                  
WILLIMANTIC    FAIR      40  28  62 CALM      30.34F                  
OXFORD         MOCLDY    38  26  62 SW3       30.32S                  
$$

MEZ002-015-021-024-NHZ003-005-008-011-012-014-VTZ005-008-142200-
NORTHERN NEW ENGLAND
  
CITY           SKY/WX    TMP DP  RH WIND       PRES   REMARKS
PORTLAND ME    CLOUDY    33  17  51 SW6       30.37F WCI  28          
BANGOR ME      CLOUDY    31  24  75 S7        30.36F WCI  24          
CONCORD NH     MOCLDY    30  16  56 CALM      30.35F                  
MANCHESTER NH  MOCLDY    33  16  49 SE6       30.34F WCI  28          
NASHUA NH      MOCLDY    34  20  56 SE3       30.35F                  
PORTSMOUTH NH  CLOUDY    34  20  56 CALM      30.36F                  
JAFFREY NH     MOCLDY    33  23  66 S7        30.29F WCI  27          
KEENE NH       CLOUDY    32  21  64 CALM      30.32F                  
BURLINGTON VT  CLOUDY    30  20  66 S12       30.22F WCI  20          
MT. WASHINGTON SNOWSHWR   9   9 100 W54G62      N/A  VSB 0   WCI -20  
$$

NYZ052-076-142200-
EASTERN NEW YORK
  
CITY           SKY/WX    TMP DP  RH WIND       PRES   REMARKS
ALBANY         MOCLDY    36  18  48 S10       30.28F WCI  28          
NEW YORK CITY  MOCLDY    45  22  40 S8        30.33S                  
$$
 
ANZALL-142200-
MARINE OBSERVATIONS
  
STATION/POSITION TIME  TEMP    WIND        PRES    VSBY  WAVE
                       AIR SEA DIR/SP/G                  HT/PER
                 (UTC) (F)     (DEG/KT/KT) (MB)    (MI)  (FT/S)
BOSTON BUOY      1950   40 52  160/ 14/ 17 1028.6          2/ 3
BUZZARDS BAY     2000   46     210/ 20/ 21 1028.5F
NANTUCKET SOUND  2030   45 51                N/A
MASS BAY-STELLWA 2004   41 51  180/ 16/ 19 1028.6F  1 7/8  2/ 3
ISLE OF SHOALS   2000   37     180/ 15/ 17 1028.5F
S OF BLOCK IS    2030      58                N/A           3/ 4
$$

......................KEY.........................
  SKY/WX - SKY CONDITION/PRESENT WEATHER
  TMP    - TEMPERATURE IN FAHRENHEIT
  DWPT   - DEWPOINT IN FAHRENHEIT
  RH     - RELATIVE HUMIDITY IN PERCENT
  WIND   - DIRECTION AND SPEED IN MPH
  PRES   - MEAN SEA LEVEL PRESSURE IN INCHES OF HG
  WCI    - WIND CHILL INDEX
  VSB    - VISIBILITY IN MILES
  HX     - HEAT INDEX
  TC     - TEMPERATURE IN CELSIUS
  VRB    - VARIABLE WIND DIRECTION
  N/A    - NOT AVAILABLE
  
      

Other recent Regional Weather Roundups

Fri Nov 15, 2:00am

Fri Nov 15, 1:10am

Fri Nov 15, 1:00am

Fri Nov 15, 12:10am

Fri Nov 15, 12:00am

Thu Nov 14, 11:10pm

Thu Nov 14, 11:00pm

Thu Nov 14, 10:10pm

Thu Nov 14, 10:00pm

Thu Nov 14, 9:10pm

Thu Nov 14, 9:00pm

Thu Nov 14, 8:10pm

Thu Nov 14, 8:00pm

Thu Nov 14, 7:10pm

Thu Nov 14, 7:00pm

Thu Nov 14, 6:10pm

Thu Nov 14, 6:01pm

Thu Nov 14, 5:10pm

Thu Nov 14, 5:00pm

Thu Nov 14, 4:10pm

Thu Nov 14, 3:10pm

Thu Nov 14, 3:00pm

Thu Nov 14, 2:10pm

Thu Nov 14, 2:00pm

Thu Nov 14, 1:10pm

Thu Nov 14, 1:00pm

Thu Nov 14, 12:10pm

Thu Nov 14, 12:01pm

Thu Nov 14, 11:10am

Thu Nov 14, 11:00am

Thu Nov 14, 10:10am

Thu Nov 14, 10:01am

Thu Nov 14, 9:10am

Thu Nov 14, 9:00am

Thu Nov 14, 8:10am

Thu Nov 14, 8:00am

Thu Nov 14, 7:10am

Thu Nov 14, 7:00am

Thu Nov 14, 6:10am

Thu Nov 14, 6:00am

Thu Nov 14, 5:10am

Thu Nov 14, 5:00am

Thu Nov 14, 4:10am

Thu Nov 14, 4:00am

Thu Nov 14, 3:10am

Thu Nov 14, 3:00am

Thu Nov 14, 2:10am

Thu Nov 14, 2:00am

Thu Nov 14, 1:10am

Thu Nov 14, 1:00am

Thu Nov 14, 12:10am

Thu Nov 14, 12:00am

Wed Nov 13, 11:10pm

Wed Nov 13, 11:00pm

Wed Nov 13, 10:10pm

Wed Nov 13, 10:00pm

Wed Nov 13, 9:10pm

Wed Nov 13, 9:00pm

Wed Nov 13, 8:10pm

Wed Nov 13, 8:00pm

Wed Nov 13, 7:10pm

Wed Nov 13, 7:00pm

Wed Nov 13, 6:10pm

Wed Nov 13, 6:01pm

Wed Nov 13, 5:10pm

Wed Nov 13, 5:00pm

Wed Nov 13, 4:10pm

Wed Nov 13, 4:00pm

Wed Nov 13, 3:10pm

Wed Nov 13, 3:01pm

Wed Nov 13, 2:10pm

Wed Nov 13, 2:01pm

Wed Nov 13, 1:10pm

Wed Nov 13, 1:00pm

Wed Nov 13, 12:10pm

Wed Nov 13, 12:01pm

Wed Nov 13, 11:10am

Wed Nov 13, 11:00am

Wed Nov 13, 10:10am

Wed Nov 13, 10:00am

Wed Nov 13, 9:10am

Wed Nov 13, 9:00am

Wed Nov 13, 8:10am

Wed Nov 13, 8:00am

Wed Nov 13, 7:10am

Wed Nov 13, 7:00am

Wed Nov 13, 6:10am

Wed Nov 13, 6:00am

Wed Nov 13, 5:10am

Wed Nov 13, 5:00am

Wed Nov 13, 4:10am

Wed Nov 13, 4:00am

Wed Nov 13, 3:10am

Wed Nov 13, 3:00am

Wed Nov 13, 2:10am

Wed Nov 13, 2:00am

Wed Nov 13, 1:10am

Wed Nov 13, 1:00am

Wed Nov 13, 12:10am

Wed Nov 13, 12:00am

Tue Nov 12, 11:10pm

Tue Nov 12, 11:00pm

Tue Nov 12, 10:10pm

Tue Nov 12, 10:00pm

Tue Nov 12, 9:10pm

Tue Nov 12, 9:00pm

Tue Nov 12, 8:10pm

Tue Nov 12, 8:00pm

Tue Nov 12, 7:10pm

Tue Nov 12, 7:01pm

Tue Nov 12, 6:10pm

Tue Nov 12, 6:01pm

Tue Nov 12, 5:10pm

Tue Nov 12, 5:01pm

Tue Nov 12, 4:10pm

Tue Nov 12, 4:01pm

Tue Nov 12, 3:10pm

Tue Nov 12, 3:00pm

Tue Nov 12, 2:10pm

Tue Nov 12, 2:00pm

Tue Nov 12, 1:10pm

Tue Nov 12, 1:00pm

Tue Nov 12, 12:10pm

Tue Nov 12, 12:00pm

Tue Nov 12, 11:10am

Tue Nov 12, 11:00am

Tue Nov 12, 10:10am

Tue Nov 12, 10:01am

Tue Nov 12, 9:10am

Tue Nov 12, 9:00am

Tue Nov 12, 8:10am

Tue Nov 12, 8:00am

Tue Nov 12, 7:10am

Tue Nov 12, 7:00am

Tue Nov 12, 6:10am

Tue Nov 12, 6:00am

Tue Nov 12, 5:10am

Tue Nov 12, 5:01am

Tue Nov 12, 4:10am

Tue Nov 12, 4:00am

Tue Nov 12, 3:10am

Tue Nov 12, 3:01am

Tue Nov 12, 2:10am

Meta data:

ID: 173692b2-cf29-4536-aac7-60ece9323f46
Link: https://api.weather.gov/products/173692b2-cf29-4536-aac7-60ece9323f46